CW4884 Weather Reports


time (UTC)temp
C
wind
direction
speed
KPH
gust
KPH
rain 1hr
cm
rain 24hr
cm
rain mn
cm
humidity
%
barometer
mb
20260508014522 21 261 4.8 0.0 0.00 0.00 0.00 34 1007.4
20260508013021 21 287 3.2 0.0 0.00 0.00 0.00 33 1007.5
20260508011520 21 283 3.2 0.0 0.00 0.00 0.00 35 1007.4
20260508010021 21 283 3.2 0.0 0.00 0.00 0.00 34 1007.3
20260508004521 21 347 4.8 0.0 0.00 0.00 0.00 36 1007.3
20260508003019 21 276 4.8 0.0 0.00 0.00 0.00 35 1007.4
20260508001517 21 275 3.2 0.0 0.00 0.00 0.00 36 1007.4
20260508000017 21 281 3.2 0.0 0.00 0.00 0.00 37 1007.3
20260507234528 21 281 1.6 0.0 0.00 0.00 0.00 35 1007.5
20260507233018 22 277 4.8 0.0 0.00 0.00 0.00 33 1007.3
20260507231551 23 315 4.8 0.0 0.00 0.00 0.00 33 1007.4
20260507230058 23 258 4.8 0.0 0.00 0.00 0.00 31 1007.5
20260507220036 22 311 3.2 0.0 0.00 0.00 0.00 38 1007.7
20260507214515 23 237 4.8 0.0 0.00 0.00 0.00 35 1007.7
20260507213022 22 288 4.8 0.0 0.00 0.00 0.00 38 1007.8
20260507210011 22 291 6.4 0.0 0.00 0.00 0.00 36 1008.3
20260507204517 22 162 6.4 0.0 0.00 0.00 0.00 36 1008.3
20260507203055 21 294 4.8 0.0 0.00 0.00 0.00 38 1008.5
20260507201558 21 225 3.2 0.0 0.00 0.00 0.00 39 1008.6
20260507194550 21 140 6.4 0.0 0.00 0.00 0.00 38 1008.6
20260507193032 20 227 3.2 0.0 0.00 0.00 0.00 41 1008.9
20260507191548 21 286 3.2 0.0 0.00 0.00 0.00 45 1008.9
20260507190045 21 302 3.2 0.0 0.00 0.00 0.00 43 1009.0
20260507181505 20 282 3.2 0.0 0.00 0.00 0.00 42 1009.4
20260507173108 18 265 1.6 0.0 0.00 0.00 0.00 50 1010.0
20260507171554 17 265 1.6 0.0 0.00 0.00 0.00 46 1010.1
20260507170056 17 257 1.6 0.0 0.00 0.00 0.00 47 1010.2
20260507164624 17 255 1.6 0.0 0.00 0.00 0.00 47 1010.3
20260507163056 17 252 1.6 0.0 0.00 0.00 0.00 48 1010.1
20260507161558 17 252 1.6 0.0 0.00 0.00 0.00 48 1010.2
20260507160051 17 251 1.6 0.0 0.00 0.00 0.00 48 1010.4
20260507154556 18 238 1.6 0.0 0.00 0.00 0.00 46 1010.4
20260507153046 16 260 1.6 0.0 0.00 0.00 0.00 52 1010.5
20260507151543 15 27 1.6 0.0 0.00 0.00 0.00 58 1010.6
20260507150041 13 27 0.0 0.0 0.00 0.00 0.00 65 1010.6
20260507144537 12 27 0.0 0.0 0.00 0.00 0.00 73 1010.5
20260507143030 12 27 0.0 0.0 0.00 0.00 0.00 74 1010.4
20260507141526 11 27 0.0 0.0 0.00 0.00 0.00 79 1010.4
20260507140025 10 27 0.0 0.0 0.00 0.00 0.00 80 1010.2
20260507134525 10 27 0.0 0.0 0.00 0.00 0.00 84 1010.2
20260507133027 8 27 0.0 0.0 0.00 0.00 0.00 87 1010.1
20260507131521 7 27 0.0 0.0 0.00 0.00 0.00 88 1010.0
20260507130021 7 27 0.0 0.0 0.00 0.00 0.00 88 1009.9
20260507124528 6 27 0.0 0.0 0.00 0.00 0.00 88 1009.8
20260507123022 6 27 0.0 0.0 0.00 0.00 0.00 88 1009.8
20260507121518 6 27 0.0 0.0 0.00 0.00 0.00 87 1009.8
20260507120018 6 27 0.0 0.0 0.00 0.00 0.00 87 1009.7
20260507114517 6 27 0.0 0.0 0.00 0.00 0.00 86 1009.7
20260507113034 6 27 0.0 0.0 0.00 0.00 0.00 86 1009.5
20260507111513 6 27 0.0 0.0 0.00 0.00 0.00 85 1009.4
20260507110015 6 27 0.0 0.0 0.00 0.00 0.00 85 1009.4
20260507104509 6 27 0.0 0.0 0.00 0.00 0.00 85 1009.3
20260507103008 6 27 0.0 0.0 0.00 0.00 0.00 84 1009.1
20260507101513 7 27 0.0 0.0 0.00 0.00 0.00 83 1008.8
20260507100004 7 27 0.0 0.0 0.00 0.00 0.00 83 1008.7
20260507094607 7 27 0.0 0.0 0.00 0.00 0.00 82 1008.7
20260507093057 7 27 0.0 0.0 0.00 0.00 0.00 81 1008.6
20260507091622 8 27 0.0 0.0 0.00 0.00 0.00 81 1008.5
20260507090054 8 27 0.0 0.0 0.00 0.00 0.00 81 1008.5
20260507084603 8 27 0.0 0.0 0.00 0.00 0.00 80 1008.4
20260507083049 8 27 0.0 0.0 0.00 0.00 0.00 80 1008.4
20260507081553 9 27 0.0 0.0 0.00 0.00 0.00 79 1008.6
20260507080045 10 27 0.0 0.0 0.00 0.00 0.00 78 1008.4
20260507074548 10 27 0.0 0.0 0.00 0.00 0.00 78 1008.4
20260507073040 10 27 0.0 0.0 0.00 0.00 0.00 77 1008.2
20260507071537 11 27 0.0 0.0 0.00 0.00 0.00 76 1008.3
20260507070037 11 27 0.0 0.0 0.00 0.00 0.00 76 1008.4
20260507064537 11 27 0.0 0.0 0.00 0.00 0.00 76 1008.2
20260507063035 11 27 0.0 0.0 0.00 0.00 0.00 75 1008.5
20260507061532 11 27 0.0 0.0 0.00 0.00 0.00 74 1008.5
20260507060030 11 27 0.0 0.0 0.00 0.00 0.00 75 1008.6
20260507054529 11 27 0.0 0.0 0.00 0.00 0.00 74 1008.7
20260507053028 11 27 0.0 0.0 0.00 0.00 0.00 73 1008.5
20260507051525 12 27 0.0 0.0 0.00 0.00 0.00 72 1008.5
20260507050028 12 27 0.0 0.0 0.00 0.00 0.00 71 1008.4
20260507044520 12 27 0.0 0.0 0.00 0.00 0.00 70 1008.4
20260507043024 13 27 0.0 0.0 0.00 0.00 0.00 69 1008.4
20260507041517 13 27 0.0 0.0 0.00 0.00 0.00 68 1008.5
20260507040015 13 27 0.0 0.0 0.00 0.00 0.00 68 1008.3
20260507034521 13 27 0.0 0.0 0.00 0.00 0.00 67 1008.1
20260507033014 14 27 0.0 0.0 0.00 0.00 0.00 66 1008.0
20260507031507 14 27 0.0 0.0 0.00 0.00 0.00 64 1007.7
20260507030008 15 27 0.0 0.0 0.00 0.00 0.00 62 1007.7
20260507024512 15 27 0.0 0.0 0.00 0.00 0.00 59 1007.8
20260507023007 16 27 0.0 0.0 0.00 0.00 0.00 55 1007.7
20260507021502 17 27 1.6 0.0 0.00 0.00 0.00 51 1007.8
20260507020002 17 27 0.0 0.0 0.00 0.00 0.00 52 1007.8